Location: Waco, TX
(31.5480°N, 97.1670°W)
Time: 08:56:02
(UTC-05:00)

ISS - Pass Details

Date: 11 October 2019
Orbit: 411 x 421 km, 51.6° (Epoch: 18 October)

Event Time Altitude Azimuth Distance (km) Brightness Sun altitude
Rises 18:06:40 0° 334° (NNW) 2,343 0.2 10.6°
Reaches altitude 10° 18:09:56 10° 9° (N) 1,478 -1.2 9.9°
Maximum altitude 18:11:11 12° 31° (NNE) 1,380 -1.5 9.7°
Drops below altitude 10° 18:12:26 10° 54° (NE) 1,475 -1.5 9.4°
Sets 18:15:41 0° 89° (E) 2,333 -0.6 8.8°
